Regional Weather Roundup
Issued by NWS Kansas City/Pleasant Hill, MO

Home | Current Version | Previous Version | Graphics & Text | Print | Product List | Glossary Off
Versions: 1 2 3 4 5 6 7 8 9 10 11 12 13 14 15 16 17 18 19 20 21 22 23 24 25 26

000
ASUS43 KEAX 251810
RWREAX

WEATHER ROUNDUP FOR EASTERN KANSAS AND NORTHWEST MISSOURI
NATIONAL WEATHER SERVICE KANSAS CITY/PLEASANT HILL MO
100 PM CDT WED MAY 25 2016

KSZ040-057-103>105-MOZ028-029-037-043-251900-
...KANSAS CITY METROPOLITAN AREA...

CITY           SKY/WX    TMP DP  RH WIND       PRES   REMARKS
K.C. INTL      CLOUDY    72  63  73 E6        29.93F
6HR MIN TEMP:  66; 6HR MAX TEMP:  74; 6HR PCP:  0.21;

K.C. DOWNTOWN  LGT RAIN  76  63  64 E7        29.92F
6HR MIN TEMP:  69; 6HR MAX TEMP:  78; 6HR PCP: TRACE;

LEES SUMMIT    PTSUNNY   76  64  66 N9        29.96R
6HR MIN TEMP:  66; 6HR MAX TEMP:  76;

OLATHE - IXD   CLOUDY    75  61  61 NE7       29.95R
6HR MIN TEMP:  67; 6HR MAX TEMP:  76;

OLATHE - OJC   CLOUDY    73  63  70 NE7       29.95R
6HR MIN TEMP:  68; 6HR MAX TEMP:  76; 6HR PCP:  0.01;

LAWRENCE       PTSUNNY   75  64  68 E7        29.92S

$$

MOZ001>008-011>017-020>025-030>033-038>040-044>046-053-054-251900-
...NORTHERN AND CENTRAL MISSOURI...

CITY           SKY/WX    TMP DP  RH WIND       PRES   REMARKS
ST. JOSEPH     CLOUDY    72  62  71 SE7       29.91F
6HR MIN TEMP:  68; 6HR MAX TEMP:  73; 6HR PCP:  0.02;

MOSBY          PTCLDY    73  59  60 CALM      29.95F
WARRENSBURG    CLOUDY    75  63  64 NE3       29.95R
WHITEMAN AFB   PTSUNNY   76  63  63 VRB2      29.94R
6HR MIN TEMP:  65; 6HR MAX TEMP:  77;

CLINTON        CLOUDY    75  63  64 N8        29.95R
SEDALIA        CLOUDY    80  64  58 MISG      29.95S
6HR MIN TEMP:  66; 6HR MAX TEMP:  80;

WARSAW         NOT AVBL
CHILLICOTHE      N/A     80  63  55 VRB3      29.95R
6HR MIN TEMP:  66; 6HR MAX TEMP:  80;

KIRKSVILLE     PTSUNNY   77  62  59 SW7       29.95S
6HR MIN TEMP:  64; 6HR MAX TEMP:  77; 6HR PCP: TRACE;


$$

MOZ041-047>049-056>058-063>065-088>090-097-251900-
...EASTERN AND SOUTHERN MISSOURI...

CITY           SKY/WX    TMP DP  RH WIND       PRES   REMARKS
ST. LOUIS INTL CLOUDY    77  66  68 SE13G18   29.99F
6HR MIN TEMP:  68; 6HR MAX TEMP:  79; 6HR PCP:  0.01;

SPIRIT OF STL  CLOUDY   N/A N/A N/A S16       29.96F
COLUMBIA       CLOUDY    78  66  66 SE13      29.94F
JEFFERSON CITY MOSUNNY   78  63  59 SE8       29.93S
ROLLA          CLOUDY    72  62  71 S16       29.94F
SPRINGFIELD    CLOUDY    73  59  61 SE17      29.95R
BRANSON        PTSUNNY   66  64  94 SE7       30.01R
JOPLIN         SUNNY     80  63  55 S7        29.95R
WEST PLAINS    RAIN      65  61  87 SW10      30.10R FOG

$$

IAZ060-094-KSZ022-034>040-054-083-096-NEZ052-066-093-251900-
...KANSAS...SOUTHEAST NEBRASKA AND IOWA...

CITY           SKY/WX    TMP DP  RH WIND       PRES   REMARKS
TOPEKA         CLOUDY    72  63  73 SE12      29.90F
6HR MIN TEMP:  66; 6HR MAX TEMP:  76; 6HR PCP: TRACE;

MANHATTAN      CLOUDY    75  66  73 S9G18     29.86F
EMPORIA        CLOUDY    74  65  73 S15G24    29.90R
CHANUTE        PTSUNNY   80  64  58 S16       29.91F
WICHITA        CLOUDY    79  70  74 S15G28    29.84S
OMAHA          MOSUNNY   76  61  59 S10       29.82F
LINCOLN        SUNNY     78  62  57 S23G30    29.83F
FALLS CITY     CLOUDY    74  65  73 SE15      29.88R
LAMONI         CLOUDY    73  61  65 S9        29.87F
DES MOINES     CLOUDY    74  63  68 S16       29.87S

$$





USA.gov is the U.S. government's official web portal to all federal, state and local government web resources and services.